Tracking 26922 objects as of 1-Feb-2023
HD Live streaming from Space Station
objects crossing your sky now

COSMOS 886 DEB

Track COSMOS 886 DEB now!
10-day predictions


NORAD ID: 9964
Int'l Code: 1976-126BE
Perigee: 609.3 km
Apogee: 1,872.8 km
Inclination: 65.8 °
Period: 110.2 minutes
Semi major axis: 7612 km
RCS: 0.0531 m2 (small)
Launch date: December 27, 1976
Source: Commonwealth of Independent States (former USSR) (CIS)
Launch site: TYURATAM MISSILE AND SPACE COMPLEX (TTMTR)

Note: This is SATELLITE DEBRIS
Your satellite tracking list
Your tracking list is empty




NASA's NSSDC Master Catalog

Two Line Element Set (TLE):
1 09964U 76126BE  23031.51626149  .00000600  00000-0  35719-3 0  9997
2 09964  65.8039  78.1074 0829909 108.7228 260.5653 13.07220349163955
Source of the keplerian elements: AFSPC